Temperature
14 14 15 15 13 11 13 14 14 15 15 17 17 18 16 16 17 18 17 17 17 17 17 17 17 17 17 17 17 17 17 17 17 17 17 17 16 16 16 16 16 16 16 16 16 16 16 16 15
14 14 15 14 12 12 13 13 14 15 17 17 17 17 16 16 17 17 17 17 17 17 17 16 16 16 17 17 17 17 17 17 17 17 17 17 16 16 16 16 16 16 16 16 16 16 15 15 15
13 14 14 11 11 12 15 15 14 15 17 17 16 16 16 16 16 16 17 17 16 17 16 16 16 16 16 16 16 17 17 17 17 17 17 16 16 16 16 16 16 16 16 15 15 15 15 15 15
13 14 13 11 12 12 14 15 15 15 16 17 16 15 15 16 16 16 16 16 16 16 16 16 16 16 16 16 16 16 16 16 16 16 16 16 16 16 16 16 16 16 16 15 15 15 15 15 15
13 13 11 11 12 12 12 14 15 15 15 16 16 14 15 16 16 16 16 16 16 16 16 16 16 16 16 16 16 16 16 16 16 16 16 16 16 16 16 16 16 16 15 15 15 15 15 15 15
13 10 10 11 12 13 13 15 15 15 15 15 15 14 15 15 16 16 16 16 16 16 16 15 15 15 16 16 16 16 16 16 16 16 16 16 16 15 15 15 15 15 15 15 15 15 15 15 15
11 10 10 11 12 13 14 15 15 14 14 15 16 14 14 15 15 15 15 15 15 15 15 15 15 15 15 15 16 16 16 16 16 16 16 16 15 15 15 15 15 15 15 15 15 15 15 15 15
12 10 11 11 12 13 14 15 16 16 15 16 16 14 14 15 15 15 15 15 15 15 15 15 15 15 15 15 15 15 15 15 15 15 15 15 15 15 15 15 15 15 15 15 15 15 15 14 14
12 10 10 11 12 14 14 14 15 15 15 15 15 16 16 15 15 15 14 14 14 15 15 15 15 15 15 15 15 15 15 15 15 15 15 15 15 15 15 15 14 14 14 14 14 14 14 14 14
11 9 11 12 12 13 14 14 14 15 14 14 15 15 15 15 14 14 14 14 14 14 14 14 15 15 15 15 15 15 15 15 15 15 15 15 15 15 14 14 14 14 14 14 14 14 14 14 14
10 10 11 12 13 14 14 14 14 14 14 14 15 16 15 14 14 14 14 15 15 14 14 14 14 14 14 15 15 15 15 15 14 14 14 14 14 14 14 14 14 14 14 14 14 14 14 13 13
9 10 11 12 13 13 13 13 13 14 15 16 16 16 15 14 14 14 14 14 14 14 14 14 14 14 14 14 14 14 14 14 14 14 14 14 14 14 14 14 14 14 14 14 14 13 13 13 13
9 10 11 12 13 13 13 12 13 13 15 15 15 15 15 15 14 14 14 14 14 14 14 14 14 14 14 14 14 14 14 14 14 14 14 14 14 14 14 14 14 14 13 13 13 13 13 13 13
10 10 11 11 12 12 12 12 12 13 14 14 15 14 14 14 14 14 14 14 14 14 14 14 14 13 13 13 13 14 14 14 14 14 14 14 13 13 13 13 13 13 13 13 13 13 13 12 12
10 10 10 10 11 11 12 11 11 13 13 13 14 14 14 14 14 14 14 14 14 14 13 13 13 13 13 13 13 13 13 13 13 13 13 13 13 13 13 13 13 13 12 12 12 12 12 12 12
9 9 9 10 10 11 11 10 11 12 12 12 13 13 13 13 13 14 14 14 14 13 13 13 13 13 13 13 13 13 13 13 13 13 13 13 13 13 12 12 12 12 12 12 12 12 11 11 11
8 8 8 9 10 9 10 9 10 11 11 11 11 12 12 13 13 13 13 13 13 13 13 13 13 13 13 12 12 12 12 13 13 13 12 12 12 12 12 12 12 12 12 11 11 11 11 11 11
7 7 8 8 9 9 9 8 9 10 10 10 10 11 11 12 13 13 13 13 13 13 13 13 13 12 12 12 12 12 12 12 12 12 12 12 12 12 11 11 11 11 11 11 11 11 10 10 10
7 7 8 8 9 9 8 8 8 9 9 9 9 10 11 12 12 12 12 13 13 12 12 12 12 12 12 12 12 12 12 12 12 11 11 11 11 11 11 11 11 11 11 11 10 10 10 10 10
7 7 7 8 9 9 8 8 8 7 8 9 9 10 11 11 12 12 12 12 12 12 12 12 12 12 12 12 12 12 12 11 11 11 11 11 11 11 11 11 10 10 10 10 10 10 9 9 9
7 6 7 7 8 8 8 8 7 8 8 8 9 10 10 11 11 12 12 12 12 12 12 12 12 12 11 11 11 11 11 11 11 11 10 10 10 10 10 10 10 10 10 9 9 9 9 9 9
7 7 7 7 7 6 7 6 7 6 6 6 7 8 9 10 11 11 11 12 12 12 12 12 11 11 11 11 11 11 11 11 11 10 10 10 10 10 10 9 9 9 9 9 9 9 8 8 8
6 7 7 6 6 5 6 5 6 6 6 6 6 7 9 9 10 11 11 11 12 12 12 11 11 11 11 11 11 10 10 10 10 10 9 9 9 9 9 9 9 9 9 8 8 8 8 8 8
6 6 5 5 5 5 5 5 5 5 6 6 6 7 8 9 10 10 11 11 11 11 11 11 11 11 10 10 10 10 10 10 9 9 9 9 9 9 8 8 8 8 8 8 8 7 7 7 7
6 5 4 4 4 4 5 5 5 6 5 5 5 6 7 8 8 9 10 10 10 11 11 10 10 10 10 10 10 9 9 9 9 9 8 8 8 8 8 8 8 8 7 7 7 7 7 7 7
5 5 4 4 4 4 4 4 5 5 5 5 5 6 6 7 7 8 9 9 10 10 10 10 10 10 10 9 9 9 9 8 8 8 8 8 7 7 7 7 7 7 7 7 7 7 6 6 6
4 4 4 3 3 3 4 4 4 5 4 4 4 4 5 5 6 7 8 8 9 9 9 9 9 9 9 9 9 8 8 8 8 7 7 7 7 7 7 7 6 6 6 6 6 6 6 6 6
4 4 3 3 3 4 4 4 5 5 4 3 3 3 4 5 5 6 7 7 8 8 8 8 8 8 8 8 8 7 7 7 7 7 7 7 6 6 6 6 6 6 6 6 6 6 6 5 5
3 3 3 2 3 3 4 4 4 4 3 3 2 3 3 4 5 5 6 6 7 7 7 7 7 7 7 7 7 7 7 7 6 6 6 6 6 6 6 6 6 6 5 5 5 5 5 5 5
3 3 2 3 2 2 2 4 4 2 3 2 2 3 3 3 4 4 5 5 6 6 7 7 7 7 7 6 6 6 6 6 6 6 6 5 5 5 5 5 5 5 5 5 5 5 5 4 4
Wind_Speed
2 3 3 4 5 3 5 6 4 3 4 2 2 5 8 7 5 4 1 4 7 8 10 14 15 15 15 15 15 15 15 16 16 16 15 16 15 15 15 14 14 14 13 13 13 13 12 12 12
1 2 4 5 5 3 6 6 6 6 4 4 3 4 5 2 0 4 3 4 8 9 11 12 15 15 15 16 15 15 15 15 15 15 15 15 15 15 15 14 14 14 13 13 13 12 12 12 12
2 3 4 5 5 7 6 5 7 3 2 2 3 3 3 3 3 4 3 7 8 8 10 13 15 15 15 15 15 15 15 14 14 14 14 15 14 14 14 13 13 13 13 12 12 12 11 11 11
3 4 4 3 7 7 6 3 3 2 1 2 4 3 1 1 3 3 6 8 10 8 10 13 15 15 15 15 15 14 14 14 14 14 14 14 14 13 13 12 12 12 12 12 11 11 10 10 10
3 4 3 3 7 5 5 4 2 2 2 2 5 4 1 5 2 7 8 9 9 7 9 13 15 15 15 14 14 14 13 13 13 13 13 13 13 12 12 11 11 11 11 10 10 10 9 9 9
4 4 4 6 7 5 4 4 2 2 2 3 5 5 1 2 5 7 8 8 8 8 8 11 14 14 14 14 13 13 13 12 12 12 12 12 12 12 11 11 10 10 10 9 9 8 8 8 7
5 5 6 6 4 5 4 3 4 4 4 5 6 6 1 1 4 7 8 8 7 7 8 8 11 12 13 13 12 12 12 12 12 11 11 11 11 11 10 10 10 9 9 8 8 8 7 7 7
4 5 4 5 5 5 2 2 2 5 4 3 6 8 6 6 6 8 9 8 7 6 6 7 9 10 10 11 12 12 11 11 11 11 11 10 10 9 9 9 9 8 8 8 7 7 7 6 6
4 3 6 7 7 5 2 2 1 2 5 2 1 3 4 10 10 10 8 6 6 6 5 6 7 8 10 10 10 10 10 10 10 10 10 9 9 8 8 8 8 7 7 7 6 6 6 6 6
4 6 9 5 5 3 1 2 2 3 3 2 2 3 7 11 12 12 11 10 8 6 4 4 6 7 8 8 9 9 9 9 9 9 9 9 8 8 7 7 7 6 6 5 5 5 5 5 5
6 7 5 3 2 1 1 1 1 6 4 6 7 8 11 11 11 11 10 9 8 6 5 4 5 6 7 7 7 7 8 8 8 8 8 8 8 8 7 6 5 5 5 5 4 4 4 4 3
5 4 4 2 1 0 1 1 1 3 4 2 5 11 13 14 13 12 11 9 7 7 6 5 5 6 6 7 6 6 6 6 6 6 7 7 6 5 5 5 5 5 4 4 4 3 3 2 2
5 3 3 2 1 1 0 1 1 3 3 3 6 9 12 13 11 8 7 7 7 7 6 5 5 5 6 6 5 5 5 5 6 6 6 7 5 3 3 3 4 4 4 3 3 2 2 2 2
5 3 2 2 2 1 2 3 1 5 1 4 6 8 10 11 10 7 7 8 8 8 7 5 6 5 6 4 4 4 4 5 5 5 5 6 6 4 3 2 2 2 2 2 2 1 1 1 1
3 2 3 4 4 3 2 6 6 5 3 3 5 6 7 7 8 9 10 9 9 8 7 6 6 5 5 5 4 4 5 5 4 4 5 5 5 5 4 2 1 1 1 2 2 2 2 1 2
4 3 4 4 5 4 6 9 6 3 5 5 5 5 6 6 7 7 7 7 7 7 7 6 6 6 5 4 4 4 4 5 4 4 4 4 5 5 4 2 1 1 1 1 1 1 1 1 2
3 6 7 3 4 4 7 8 5 2 5 5 5 5 6 5 5 6 6 7 7 8 8 7 6 6 5 4 4 3 4 3 3 4 4 4 4 4 4 2 1 1 1 1 0 0 0 1 1
7 6 6 7 4 5 6 7 6 2 4 5 5 5 6 7 8 6 7 7 7 7 7 7 6 5 5 4 3 2 2 1 2 2 3 3 3 3 3 2 1 2 1 0 0 1 0 1 1
7 6 5 5 3 4 7 9 9 5 4 5 6 6 7 8 6 4 5 6 6 6 7 7 7 6 5 3 3 2 1 1 0 0 1 2 3 3 3 1 1 1 1 1 1 1 0 1 1
5 5 5 1 1 3 4 8 7 6 6 7 7 8 8 6 4 4 5 5 7 8 8 8 7 7 6 4 3 2 2 1 1 0 1 1 1 2 2 2 2 1 1 1 1 1 1 0 1
6 7 6 4 1 2 1 7 5 5 4 3 4 5 6 7 7 6 6 6 7 8 9 9 8 7 6 5 4 3 3 2 1 0 1 1 0 1 2 2 2 1 2 2 2 2 2 1 1
7 6 6 5 3 2 2 4 6 4 4 4 5 5 6 6 5 5 6 7 8 8 8 8 8 7 6 7 6 6 4 3 3 2 1 1 1 0 1 2 2 2 2 2 2 2 2 2 2
4 5 5 4 4 1 1 3 8 2 5 6 6 5 5 5 5 6 7 8 7 6 7 7 7 6 6 7 7 6 4 2 1 1 1 0 1 1 1 1 1 2 2 2 2 2 2 2 3
6 6 6 4 3 4 7 6 7 4 6 5 5 4 4 3 3 4 4 4 4 4 5 6 7 6 6 6 6 6 6 4 3 2 1 0 1 1 1 1 1 1 2 2 3 3 3 3 3
6 6 3 1 2 7 4 6 8 6 5 5 5 5 3 2 2 2 3 4 5 5 5 6 7 6 5 5 5 5 6 5 5 3 2 1 1 1 2 1 1 1 2 2 2 2 3 3 3
7 8 7 7 6 3 3 7 7 4 3 2 2 1 1 1 1 2 3 4 5 5 5 6 7 5 5 5 4 4 4 3 3 3 3 2 2 2 2 2 2 2 2 2 2 2 3 3 4
7 5 4 5 2 2 5 5 6 1 2 2 2 3 3 2 2 2 2 2 3 4 4 6 6 5 4 4 4 3 3 3 3 2 2 1 1 1 1 2 2 2 2 2 2 2 3 3 4
4 6 5 5 5 4 4 5 4 3 2 1 1 1 2 3 3 3 3 2 2 3 3 4 4 4 4 3 3 3 3 2 2 2 1 1 1 1 1 1 2 2 2 2 3 3 3 4 4
4 3 3 4 4 5 3 5 2 3 3 2 1 1 2 2 2 3 3 3 3 4 4 4 4 4 3 3 2 3 2 2 2 1 1 1 1 1 1 2 2 2 3 3 3 3 3 4 4
3 5 5 5 3 3 3 5 3 1 1 2 2 2 3 3 3 4 4 4 4 4 4 4 4 4 3 2 3 2 2 2 2 1 0 1 1 1 2 2 2 2 3 3 3 4 4 4 5
Wind_Direction
35 63 75 62 64 66 232 237 224 221 212 206 153 144 153 157 164 175 136 144 135 139 144 144 141 138 134 129 125 121 118 115 115 113 113 111 108 106 104 104 101 99 98 95 93 92 91 90 89
105 90 63 71 112 189 249 233 221 215 183 133 88 97 112 144 85 118 141 149 135 135 137 141 141 138 134 131 129 125 120 117 116 115 113 112 110 106 104 101 100 98 95 93 93 90 89 87 87
119 66 95 100 156 194 225 222 218 232 185 137 102 77 126 159 161 161 171 145 127 126 134 140 139 137 134 132 130 127 123 120 118 116 114 113 111 109 106 103 101 98 96 94 92 89 88 87 86
104 65 67 121 211 222 225 239 183 156 122 103 127 99 83 5 180 169 140 132 124 121 130 139 138 137 135 133 130 126 124 122 120 118 117 115 112 110 108 104 102 101 98 95 92 89 87 85 85
69 96 116 209 231 241 240 249 208 165 155 130 136 132 66 347 81 123 128 127 125 120 127 138 138 136 134 132 130 127 124 122 122 120 119 117 113 111 108 105 104 102 100 98 95 90 88 86 83
79 94 147 214 233 250 252 229 190 173 155 139 136 129 144 355 117 127 125 122 121 120 117 131 134 133 132 131 129 127 125 122 121 121 120 119 116 113 110 106 104 100 98 96 94 91 87 86 83
130 136 184 199 217 242 235 192 175 171 177 189 158 132 159 173 142 123 116 110 105 107 107 111 122 127 129 130 128 126 124 121 120 118 117 117 117 114 111 107 104 101 99 95 91 86 83 84 82
143 135 175 200 202 229 224 169 167 169 187 159 144 151 186 187 142 116 108 101 100 96 100 105 109 115 118 122 124 123 122 120 118 115 113 111 110 110 110 107 104 104 100 96 90 83 79 78 75
113 128 200 206 195 217 199 158 64 119 124 121 157 184 183 140 136 125 119 112 115 109 100 107 108 109 112 115 118 116 116 115 114 111 109 103 97 97 99 101 103 104 100 97 90 82 77 75 68
141 191 215 209 195 195 187 161 161 118 117 132 88 54 116 138 147 148 153 156 153 147 131 117 116 113 111 110 105 103 104 105 105 105 104 99 96 94 94 94 96 99 97 93 87 80 75 70 60
174 202 214 231 225 189 174 185 142 138 188 200 182 162 146 152 157 162 166 166 163 154 140 127 125 118 113 110 108 101 101 100 101 106 108 104 96 91 86 83 80 80 81 77 73 70 67 67 61
183 220 209 225 202 152 183 144 89 188 218 204 170 157 157 165 173 175 173 168 157 150 144 135 125 119 115 116 114 112 108 108 107 110 115 111 99 90 86 81 76 73 72 73 70 69 65 63 56
204 218 218 244 299 282 260 236 229 258 276 88 120 147 166 175 179 177 164 156 153 156 153 148 133 127 123 116 118 116 117 120 121 118 119 121 115 110 98 88 83 77 74 74 71 68 60 55 36
199 209 239 250 242 251 219 265 219 253 184 115 141 166 178 181 177 165 164 169 171 169 164 154 144 135 129 124 124 125 125 125 122 122 125 126 125 122 114 104 89 78 73 75 80 70 57 35 31
159 169 274 243 204 212 163 273 235 228 154 155 172 182 187 189 181 183 184 181 179 174 166 160 153 138 133 132 134 132 135 132 130 133 133 130 129 129 127 124 116 86 79 75 67 49 47 25 10
135 161 228 244 189 189 168 246 254 202 168 193 198 196 197 201 198 197 189 181 174 167 165 165 160 148 144 139 136 134 139 139 141 142 139 139 139 137 128 130 150 110 90 82 90 48 25 359 350
160 199 211 239 194 168 185 237 254 188 178 207 213 210 208 211 213 205 192 182 174 171 167 166 158 154 152 140 131 132 134 137 145 144 143 148 147 146 137 143 147 119 107 113 136 38 40 325 332
190 190 193 206 204 168 205 240 262 256 196 221 225 222 217 213 219 203 193 183 172 167 164 162 154 150 140 122 107 98 98 92 122 143 158 159 156 153 145 148 139 119 121 161 183 202 309 269 301
156 164 191 210 197 179 219 244 255 257 224 230 232 227 223 224 226 200 186 173 163 161 164 165 158 154 144 135 137 135 147 146 83 149 166 170 168 163 158 164 159 151 174 207 207 198 203 323 339
163 171 188 221 147 187 237 261 258 246 225 218 217 223 224 223 217 198 181 170 173 177 176 171 169 166 165 163 153 146 147 157 174 113 97 138 169 176 178 178 190 186 187 200 198 166 184 277 46
198 188 185 176 51 39 313 291 262 256 234 235 228 224 223 213 211 200 186 183 179 182 183 181 177 170 165 149 123 99 84 71 69 11 316 312 235 205 190 188 184 193 189 212 219 195 182 213 260
217 192 169 156 135 260 166 268 276 256 262 249 245 237 235 229 216 203 190 187 190 192 184 178 173 166 161 153 152 151 159 181 205 206 238 296 299 279 218 202 195 199 207 221 223 202 199 185 228
175 146 147 151 150 237 207 221 278 268 250 251 246 241 243 234 214 205 198 193 191 185 176 172 164 161 159 161 163 160 159 166 160 153 152 330 340 344 323 227 206 214 218 225 230 218 211 204 208
129 92 75 68 109 234 211 195 268 230 224 249 250 247 251 244 219 203 190 165 157 156 158 157 155 158 160 160 160 161 160 158 152 153 169 264 321 325 332 307 246 235 227 227 230 229 225 223 219
133 122 110 142 207 238 193 198 248 246 235 230 243 247 251 237 187 157 150 153 151 152 156 155 155 156 159 158 162 165 165 166 173 179 187 205 265 289 293 307 287 272 251 238 225 230 237 229 226
172 157 166 185 202 243 188 221 250 262 283 265 233 168 69 56 107 138 150 155 158 155 152 154 157 155 158 159 160 154 155 163 176 183 187 200 224 251 265 278 280 276 269 266 247 242 241 236 233
153 182 151 131 124 178 234 269 295 306 355 20 61 70 64 60 74 95 102 108 128 138 149 155 153 148 152 152 142 142 150 160 167 171 170 195 229 248 266 281 283 277 271 261 253 253 252 243 238
145 143 125 144 162 213 249 249 244 258 289 346 42 57 49 51 61 67 73 74 85 105 111 116 128 137 139 135 143 143 151 158 158 149 161 209 256 264 271 290 291 288 277 259 255 259 260 251 251
117 134 143 148 164 169 214 257 249 238 233 213 190 112 79 68 71 67 60 59 71 79 91 100 107 110 114 120 121 120 124 121 121 129 187 235 263 265 264 267 276 278 276 268 262 262 263 262 265
148 160 151 164 200 179 181 260 328 292 242 133 101 77 70 67 64 64 63 61 68 72 76 85 95 99 106 111 108 108 105 100 99 104 283 287 287 285 270 269 275 279 284 275 261 267 269 263 269
Height
1486 1488 1491 1494 1499 1509 1508 1499 1494 1491 1490 1488 1488 1489 1491 1494 1499 1502 1498 1498 1501 1505 1508 1511 1514 1517 1519 1521 1523 1525 1526 1528 1529 1530 1531 1533 1534 1535 1536 1537 1538 1538 1539 1540 1541 1541 1542 1542 1542
1486 1488 1492 1494 1504 1512 1506 1495 1492 1487 1486 1486 1487 1488 1490 1491 1493 1494 1495 1498 1502 1505 1508 1511 1514 1517 1519 1521 1523 1525 1527 1528 1529 1531 1532 1533 1534 1535 1536 1537 1538 1539 1540 1540 1541 1542 1542 1542 1543
1485 1488 1491 1495 1504 1505 1496 1488 1486 1485 1485 1486 1487 1488 1490 1491 1492 1493 1495 1498 1502 1506 1508 1511 1514 1517 1520 1522 1524 1526 1527 1529 1530 1531 1532 1534 1535 1536 1537 1538 1539 1540 1540 1541 1541 1542 1542 1543 1543
1485 1489 1491 1498 1498 1494 1489 1484 1484 1484 1485 1486 1487 1489 1490 1492 1493 1494 1496 1499 1503 1506 1509 1512 1515 1517 1520 1522 1524 1526 1527 1529 1530 1532 1533 1534 1535 1536 1537 1538 1539 1540 1541 1541 1542 1542 1543 1543 1543
1484 1487 1493 1497 1494 1489 1485 1483 1483 1483 1484 1485 1486 1488 1490 1492 1493 1495 1497 1500 1503 1506 1509 1512 1515 1518 1520 1522 1524 1526 1528 1529 1530 1532 1533 1534 1535 1536 1537 1538 1539 1540 1540 1541 1542 1542 1543 1543 1543
1483 1485 1496 1497 1491 1485 1482 1481 1482 1483 1484 1485 1486 1488 1490 1492 1494 1496 1499 1502 1505 1507 1510 1513 1515 1518 1520 1522 1524 1526 1528 1529 1530 1532 1533 1534 1535 1536 1537 1538 1539 1540 1540 1541 1541 1542 1542 1543 1543
1482 1486 1490 1490 1488 1484 1480 1479 1480 1481 1483 1484 1485 1488 1489 1492 1494 1497 1499 1502 1505 1508 1510 1513 1515 1518 1520 1522 1524 1526 1528 1529 1530 1532 1533 1534 1535 1536 1537 1538 1539 1539 1540 1540 1541 1541 1542 1542 1542
1479 1484 1486 1488 1486 1482 1478 1477 1478 1479 1481 1483 1485 1486 1488 1490 1493 1496 1500 1502 1505 1508 1510 1513 1515 1517 1519 1522 1524 1526 1527 1529 1530 1531 1533 1534 1534 1535 1536 1537 1538 1539 1539 1540 1540 1540 1541 1541 1542
1478 1485 1486 1483 1482 1478 1476 1476 1478 1479 1480 1482 1483 1484 1486 1489 1492 1496 1499 1502 1505 1507 1510 1512 1515 1517 1519 1521 1523 1525 1527 1528 1530 1531 1532 1533 1534 1535 1536 1537 1538 1538 1539 1539 1539 1540 1540 1540 1541
1476 1482 1479 1476 1475 1475 1475 1475 1477 1478 1479 1481 1482 1483 1485 1488 1491 1494 1497 1499 1503 1506 1509 1511 1514 1516 1518 1521 1522 1524 1526 1528 1529 1531 1532 1533 1534 1535 1536 1536 1537 1538 1538 1538 1539 1539 1539 1539 1540
1473 1475 1473 1473 1473 1474 1474 1475 1476 1477 1479 1478 1479 1481 1484 1487 1490 1493 1496 1498 1501 1505 1508 1510 1513 1516 1518 1520 1522 1524 1525 1527 1529 1530 1531 1532 1533 1534 1535 1536 1536 1537 1537 1537 1538 1538 1538 1538 1538
1472 1471 1471 1472 1473 1473 1474 1474 1476 1476 1476 1477 1478 1480 1482 1485 1488 1491 1494 1498 1501 1504 1507 1509 1512 1515 1517 1519 1521 1523 1525 1526 1528 1529 1530 1531 1532 1533 1534 1534 1535 1535 1536 1536 1536 1536 1537 1537 1537
1470 1469 1470 1471 1472 1473 1473 1474 1475 1474 1475 1476 1477 1479 1481 1484 1487 1491 1494 1497 1500 1503 1506 1508 1511 1513 1516 1518 1520 1522 1524 1525 1527 1528 1529 1530 1531 1532 1532 1533 1533 1534 1534 1534 1534 1535 1535 1535 1535
1467 1469 1470 1470 1471 1472 1473 1473 1474 1472 1474 1475 1477 1479 1481 1483 1486 1489 1493 1495 1498 1501 1504 1507 1510 1512 1515 1517 1519 1521 1522 1524 1525 1527 1528 1529 1530 1530 1531 1531 1531 1532 1532 1532 1532 1533 1533 1533 1533
1466 1469 1470 1469 1470 1471 1473 1474 1472 1471 1473 1475 1476 1478 1480 1483 1485 1487 1490 1493 1496 1500 1503 1506 1508 1511 1513 1515 1517 1519 1521 1523 1524 1525 1526 1527 1528 1528 1529 1529 1530 1530 1530 1530 1530 1530 1531 1530 1530
1466 1470 1472 1468 1468 1470 1475 1474 1469 1470 1471 1473 1475 1477 1479 1481 1483 1486 1489 1492 1495 1498 1501 1504 1506 1509 1511 1513 1515 1517 1519 1521 1522 1523 1524 1525 1526 1527 1527 1527 1528 1528 1528 1528 1528 1528 1528 1528 1527
1467 1472 1471 1469 1467 1468 1471 1471 1468 1468 1469 1471 1473 1475 1476 1479 1481 1484 1487 1490 1493 1496 1499 1502 1504 1507 1509 1511 1514 1516 1517 1519 1520 1521 1522 1523 1524 1524 1525 1525 1526 1526 1526 1526 1525 1525 1525 1524 1524
1467 1469 1469 1469 1466 1468 1470 1469 1467 1467 1468 1469 1471 1472 1474 1476 1478 1481 1484 1487 1490 1493 1496 1499 1502 1504 1507 1509 1511 1513 1515 1516 1518 1519 1520 1521 1521 1522 1522 1523 1523 1523 1523 1523 1523 1522 1522 1522 1521
1461 1465 1467 1467 1465 1467 1469 1468 1466 1465 1467 1467 1468 1470 1471 1473 1476 1479 1481 1484 1487 1490 1493 1496 1499 1501 1504 1506 1508 1510 1512 1513 1515 1516 1517 1518 1519 1519 1520 1520 1520 1520 1520 1520 1520 1519 1519 1519 1518
1460 1464 1466 1466 1465 1466 1468 1467 1464 1463 1463 1463 1465 1466 1468 1470 1472 1475 1478 1480 1483 1486 1489 1492 1495 1498 1501 1503 1505 1507 1509 1511 1512 1513 1514 1515 1516 1516 1517 1517 1517 1517 1517 1517 1517 1516 1516 1515 1515
1460 1463 1465 1466 1466 1467 1468 1466 1463 1460 1459 1460 1461 1462 1464 1466 1468 1471 1473 1476 1479 1482 1485 1488 1491 1495 1498 1500 1503 1504 1506 1507 1509 1510 1511 1512 1512 1513 1514 1514 1514 1514 1514 1514 1514 1514 1513 1512 1513
1459 1459 1462 1465 1470 1475 1472 1476 1464 1460 1459 1458 1458 1458 1460 1462 1464 1466 1469 1472 1475 1478 1482 1485 1488 1491 1494 1497 1499 1501 1502 1503 1505 1506 1508 1509 1510 1510 1510 1511 1511 1511 1511 1511 1511 1511 1510 1510 1509
1457 1458 1462 1466 1471 1476 1475 1478 1466 1461 1459 1456 1455 1455 1456 1458 1460 1462 1465 1468 1472 1475 1478 1481 1485 1488 1491 1493 1496 1498 1499 1501 1502 1504 1505 1506 1506 1507 1507 1507 1508 1508 1508 1508 1508 1507 1507 1507 1506
1455 1460 1466 1471 1474 1478 1474 1477 1466 1462 1455 1453 1452 1452 1453 1455 1456 1459 1462 1465 1468 1471 1475 1478 1481 1484 1487 1490 1492 1494 1496 1497 1499 1500 1501 1502 1503 1503 1504 1504 1504 1504 1504 1504 1504 1504 1504 1503 1503
1454 1463 1475 1478 1482 1478 1471 1471 1462 1453 1451 1450 1450 1450 1450 1452 1453 1455 1458 1461 1465 1468 1471 1475 1478 1481 1484 1487 1489 1491 1493 1494 1496 1497 1498 1499 1499 1500 1500 1501 1501 1501 1501 1501 1501 1500 1500 1500 1499
1453 1457 1469 1475 1478 1477 1471 1469 1458 1451 1449 1448 1448 1448 1449 1450 1451 1453 1456 1459 1462 1465 1468 1471 1475 1478 1481 1484 1486 1488 1490 1492 1493 1494 1495 1496 1496 1497 1497 1497 1497 1497 1497 1497 1497 1496 1496 1496 1495
1454 1457 1459 1471 1477 1477 1471 1465 1457 1449 1449 1448 1448 1448 1448 1450 1451 1453 1455 1458 1460 1463 1466 1469 1472 1475 1478 1481 1483 1485 1487 1489 1490 1491 1492 1493 1493 1493 1494 1494 1493 1493 1493 1493 1492 1492 1492 1491 1491
1450 1454 1462 1468 1473 1470 1466 1465 1457 1451 1451 1450 1450 1450 1450 1450 1451 1453 1455 1457 1459 1462 1465 1468 1471 1473 1476 1478 1481 1482 1484 1486 1487 1488 1489 1489 1490 1490 1490 1490 1490 1489 1489 1488 1488 1488 1487 1487 1486
1454 1457 1459 1465 1467 1470 1469 1462 1452 1451 1450 1451 1450 1450 1451 1451 1452 1453 1455 1457 1459 1461 1464 1467 1469 1472 1474 1476 1478 1480 1482 1483 1484 1485 1486 1486 1487 1487 1486 1486 1486 1485 1485 1484 1484 1483 1483 1482 1482
1451 1454 1459 1463 1468 1470 1469 1464 1451 1451 1450 1450 1451 1452 1452 1453 1454 1455 1456 1457 1459 1461 1463 1466 1468 1470 1472 1475 1476 1478 1479 1480 1481 1482 1483 1483 1483 1483 1483 1482 1482 1481 1481 1480 1479 1479 1478 1478 1477